Blytheville, AR

10:58 AM CST on December 06, 2016 (GMT -0600)
Blytheville Municipal

Weather History for KHKA - February, 2013

Change the Weather History Date:

Thursday, February 14, 2013

  Actual Average Record
Temperature  
Mean Temperature 48 °F -  
Max Temperature 59 °F 50 °F 75 °F (1934)
Min Temperature 37 °F 33 °F 14 °F (1988)
Degree Days  
Heating Degree Days 17    
Moisture  
Dew Point 39 °F    
Average Humidity 75    
Maximum Humidity 93    
Minimum Humidity 51    
Precipitation  
Precipitation 0.00 in - - ()
Sea Level Pressure  
Sea Level Pressure 30.01 in    
Wind  
Wind Speed 11 mph (SW)    
Max Wind Speed 18 mph    
Max Gust Speed 23 mph    
Visibility 10 miles    
Events      
Averages and records for this station are not official NWS values.
T = Trace of Precipitation, MM = Missing Value Source: NWS Daily Summary

Daily Weather History Graph

Daily Weather History Graph

Search for Another Location

Airport or City:

Trip Planner

Search our weather history database for the weather conditions in past years. The results will help you decide how hot, cold, wet, or windy it might be!

Date:

Astronomy

Feb. 14, 2013 Rise Set
Actual Time 6:47 AM CST 5:40 PM CST
Civil Twilight 6:21 AM CST 6:06 PM CST
Nautical Twilight 5:51 AM CST 6:36 PM CST
Astronomical Twilight 5:21 AM CST 7:06 PM CST
Moon 9:00 AM CST (2/14) 10:31 PM CST (2/14)
Length of Visible Light 11h 45m
Length of Day
10h 52m
Waxing Crescent, 22% of the Moon is Illuminated
Feb 14
Waxing Crescent
Feb 17
First Quarter
Feb 25
Full
Mar 4
Last Quarter
Mar 11
New

Hourly Weather History & Observations

Time (CST) Temp. Windchill Dew Point Humidity Pressure Visibility Wind Dir Wind Speed Gust Speed Precip Events Conditions
12:53 AM 39.0 °F 31.8 °F 36.0 °F 89% 30.01 in 10.0 mi SW 11.5 mph - N/A   Clear
1:53 AM 39.0 °F 31.8 °F 36.0 °F 89% 30.00 in 10.0 mi SSW 11.5 mph - N/A   Clear
2:53 AM 39.0 °F 31.0 °F 35.1 °F 86% 29.99 in 10.0 mi SSW 13.8 mph - N/A   Clear
3:53 AM 39.0 °F 31.4 °F 35.1 °F 86% 29.99 in 10.0 mi SW 12.7 mph - N/A   Clear
4:53 AM 37.9 °F 30.5 °F 35.1 °F 89% 29.99 in 10.0 mi SSW 11.5 mph - N/A   Clear
5:53 AM 37.0 °F 29.8 °F 35.1 °F 93% 29.99 in 10.0 mi SSW 10.4 mph - N/A   Clear
6:53 AM 37.0 °F 29.3 °F 34.0 °F 89% 30.00 in 10.0 mi SSW 11.5 mph - N/A   Clear
7:53 AM 39.0 °F 30.6 °F 36.0 °F 89% 30.02 in 10.0 mi SSW 15.0 mph - N/A   Clear
8:53 AM 43.0 °F 34.8 °F 37.9 °F 82% 30.03 in 10.0 mi SW 18.4 mph 23.0 mph N/A   Clear
9:53 AM 46.9 °F - 39.9 °F 77% 30.03 in 10.0 mi SW 15.0 mph - N/A   Clear
10:53 AM 50.0 °F - 41.0 °F 71% 30.04 in 10.0 mi SW 13.8 mph - N/A   Clear
11:53 AM 53.1 °F - 42.1 °F 66% 30.02 in 10.0 mi WSW 10.4 mph - N/A   Clear
12:53 PM 55.9 °F - 42.1 °F 60% 29.99 in 10.0 mi WSW 9.2 mph 17.3 mph N/A   Clear
1:53 PM 57.9 °F - 42.1 °F 56% 29.98 in 10.0 mi SW 13.8 mph 19.6 mph N/A   Clear
2:53 PM 59.0 °F - 42.1 °F 53% 29.98 in 10.0 mi SW 11.5 mph 19.6 mph N/A   Clear
3:53 PM 57.9 °F - 39.9 °F 51% 29.99 in 10.0 mi WSW 12.7 mph - N/A   Clear
4:53 PM 57.0 °F - 41.0 °F 55% 29.99 in 10.0 mi SW 9.2 mph - N/A   Clear
5:53 PM 55.0 °F - 42.1 °F 62% 30.01 in 10.0 mi SW 8.1 mph - N/A   Clear
6:53 PM 50.0 °F - 43.0 °F 77% 30.02 in 10.0 mi SW 6.9 mph - N/A   Clear
7:53 PM 48.0 °F - 41.0 °F 77% 30.03 in 10.0 mi SSW 6.9 mph - N/A   Clear
8:53 PM 46.0 °F 41.9 °F 39.0 °F 76% 30.03 in 10.0 mi SW 8.1 mph - N/A   Clear
9:53 PM 48.0 °F - 37.9 °F 68% 30.04 in 10.0 mi WSW 5.8 mph - N/A   Clear
10:53 PM 44.1 °F 40.8 °F 37.9 °F 79% 30.05 in 10.0 mi West 5.8 mph - N/A   Clear
11:53 PM 42.1 °F 37.7 °F 37.0 °F 82% 30.06 in 10.0 mi NW 6.9 mph - N/A   Clear